User: anonymous   Login
Location: Hickory_Viewmont
(35.7830°N, 81.3170°W)
Time: 20:41:41
(UTC-04:00)
Language:

Okean-O - Orbit

View from above orbital plane
View from above orbital plane
View from above satellite
View from above satellite

Ground track
Ground track

The orbit data is extracted from the following two-line orbital elements,

1 25860U 99039A   17205.55069400 +.00000006 +00000-0 +85279-5 0  9997
2 25860 098.1886 190.9412 0001659 071.0493 289.0896 14.76484363969242
Epoch (UTC): 24 July 2017 13:12:59
Eccentricity: 0.0001659
inclination: 98.1886°
perigee height: 639 km
apogee height: 641 km
right ascension of ascending node: 190.9412°
argument of perigee: 71.0493°
revolutions per day: 14.76484363
mean anomaly at epoch: 289.0896°
orbit number at epoch: 96924

The dashed part of the orbit path shows where the satellite is in the earth's shadow,  

DLR